TimeCST,TemperatureF,Dew PointF,Humidity,Sea Level PressureIn,VisibilityMPH,Wind Direction,Wind SpeedMPH,Gust SpeedMPH,PrecipitationIn,Events,Conditions,WindDirDegrees,DateUTC
12:55 AM,32.0,28.0,85,30.21,10.0,North,8.1,-,N/A,,Clear,350,2013-01-17 06:55:00
1:47 AM,33.8,30.2,87,30.19,10.0,North,11.5,-,N/A,,Mostly Cloudy,360,2013-01-17 07:47:00
1:55 AM,33.1,28.9,85,30.23,10.0,North,10.4,-,N/A,,Mostly Cloudy,360,2013-01-17 07:55:00
2:02 AM,33.8,28.4,81,30.20,10.0,North,13.8,18.4,N/A,,Scattered Clouds,360,2013-01-17 08:02:00
2:35 AM,32.0,28.4,87,30.21,10.0,North,10.4,-,N/A,,Mostly Cloudy,350,2013-01-17 08:35:00
2:51 AM,30.2,26.6,86,30.23,10.0,North,15.0,-,N/A,,Mostly Cloudy,350,2013-01-17 08:51:00
2:55 AM,32.0,28.0,85,30.27,10.0,North,16.1,20.7,N/A,,Mostly Cloudy,350,2013-01-17 08:55:00
3:55 AM,30.9,27.0,85,30.28,10.0,North,13.8,-,N/A,,Overcast,360,2013-01-17 09:55:00
4:55 AM,28.9,26.1,89,30.32,10.0,NNW,5.8,-,N/A,,Overcast,340,2013-01-17 10:55:00
5:55 AM,28.0,24.1,85,30.35,10.0,North,9.2,-,N/A,,Overcast,360,2013-01-17 11:55:00
6:46 AM,24.8,21.2,86,30.34,10.0,North,10.4,-,N/A,,Scattered Clouds,360,2013-01-17 12:46:00
6:55 AM,25.0,21.0,85,30.39,10.0,North,11.5,17.3,N/A,,Partly Cloudy,350,2013-01-17 12:55:00
7:55 AM,23.0,19.0,85,30.42,10.0,North,10.4,-,N/A,,Clear,350,2013-01-17 13:55:00
8:55 AM,25.0,19.0,78,30.46,10.0,North,11.5,-,N/A,,Clear,360,2013-01-17 14:55:00
9:55 AM,28.9,18.0,64,30.48,10.0,NNW,8.1,-,N/A,,Clear,340,2013-01-17 15:55:00
10:55 AM,30.9,15.1,52,30.48,10.0,North,10.4,-,N/A,,Clear,350,2013-01-17 16:55:00
11:55 AM,35.1,16.0,46,30.46,10.0,North,5.8,-,N/A,,Clear,10,2013-01-17 17:55:00
12:55 PM,37.9,17.1,43,30.45,10.0,North,12.7,-,N/A,,Clear,360,2013-01-17 18:55:00
1:55 PM,39.9,19.0,43,30.43,10.0,North,15.0,19.6,N/A,,Clear,10,2013-01-17 19:55:00
2:55 PM,41.0,19.9,43,30.43,10.0,NNW,6.9,-,N/A,,Clear,340,2013-01-17 20:55:00
3:55 PM,39.9,19.9,45,30.45,10.0,NW,6.9,-,N/A,,Clear,320,2013-01-17 21:55:00
4:55 PM,37.0,19.9,50,30.46,10.0,NNW,4.6,-,N/A,,Clear,340,2013-01-17 22:55:00
5:55 PM,30.0,19.0,64,30.47,10.0,West,3.5,-,N/A,,Clear,270,2013-01-17 23:55:00
6:55 PM,28.9,19.9,69,30.48,10.0,Calm,Calm,-,N/A,,Clear,0,2013-01-18 00:55:00
7:55 PM,25.0,18.0,75,30.49,10.0,Calm,Calm,-,N/A,,Clear,0,2013-01-18 01:55:00
8:55 PM,24.1,19.0,81,30.48,10.0,South,4.6,-,N/A,,Clear,180,2013-01-18 02:55:00
9:55 PM,26.1,21.0,81,30.47,10.0,Calm,Calm,-,N/A,,Clear,0,2013-01-18 03:55:00
10:55 PM,25.0,21.9,88,30.46,10.0,SSE,4.6,-,N/A,,Clear,160,2013-01-18 04:55:00
11:55 PM,24.1,19.0,81,30.46,10.0,South,4.6,-,N/A,,Clear,180,2013-01-18 05:55:00